SWA1331 KPHX-KSAN

Flight info

Callsign SWA1331
Flight time 0h 56m
Altitude 28000
Route MOBIE4 GBN
Aircraft B732/M-SDFGHRWY/S

Departure

Time 2026-05-04 02:29
Airport Phoenix Sky Harbor International Airport (KPHX)

Arrival

Time 2026-05-04 03:26
Airport San Diego International Airport (KSAN)
Time Latitude Longitude Altitude Speed Heading
2026-05-04 02:00 33.43751 -111.99732 1137 ft 0 kts 90°
2026-05-04 02:18 33.43751 -111.99741 1137 ft 1 kts 90°
2026-05-04 02:19 33.43751 -111.99753 1137 ft 2 kts 77°
2026-05-04 02:19 33.43744 -111.99768 1137 ft 2 kts 46°
2026-05-04 02:19 33.43732 -111.99778 1137 ft 2 kts 18°
2026-05-04 02:19 33.43722 -111.99780 1137 ft 1 kts 359°
2026-05-04 02:20 33.43718 -111.99779 1137 ft 0 kts 360°
2026-05-04 02:22 33.43720 -111.99779 1137 ft 2 kts 359°
2026-05-04 02:22 33.43779 -111.99781 1137 ft 10 kts 357°
2026-05-04 02:23 33.43852 -111.99783 1138 ft 11 kts
2026-05-04 02:23 33.43904 -111.99728 1139 ft 11 kts 91°
2026-05-04 02:23 33.43903 -111.99637 1139 ft 11 kts 91°
2026-05-04 02:23 33.43901 -111.99544 1139 ft 11 kts 90°
2026-05-04 02:24 33.43903 -111.99435 1139 ft 14 kts 89°
2026-05-04 02:24 33.43901 -111.99319 1139 ft 13 kts 95°
2026-05-04 02:24 33.43870 -111.99229 1139 ft 11 kts 174°
2026-05-04 02:24 33.43791 -111.99232 1139 ft 11 kts 179°
2026-05-04 02:25 33.43708 -111.99229 1138 ft 14 kts 179°
2026-05-04 02:25 33.43602 -111.99229 1137 ft 15 kts 180°
2026-05-04 02:25 33.43493 -111.99230 1136 ft 15 kts 180°
2026-05-04 02:25 33.43389 -111.99229 1135 ft 14 kts 180°
2026-05-04 02:26 33.43295 -111.99224 1134 ft 10 kts 180°
2026-05-04 02:26 33.43245 -111.99232 1134 ft 6 kts 199°
2026-05-04 02:26 33.43217 -111.99252 1134 ft 0 kts 220°
2026-05-04 02:27 33.43194 -111.99277 1134 ft 9 kts 226°
2026-05-04 02:28 33.43140 -111.99337 1133 ft 10 kts 200°
2026-05-04 02:28 33.43107 -111.99358 1133 ft 5 kts 246°
2026-05-04 02:28 33.43104 -111.99436 1133 ft 21 kts 268°
2026-05-04 02:28 33.43103 -111.99854 1132 ft 82 kts 269°
2026-05-04 02:29 33.43103 -112.00790 1134 ft 139 kts 270°
2026-05-04 02:29 33.43120 -112.02086 1378 ft 163 kts 270°
2026-05-04 02:29 33.43247 -112.03429 2022 ft 165 kts 274°
2026-05-04 02:29 33.43441 -112.04878 2448 ft 180 kts 274°
2026-05-04 02:30 33.43621 -112.06258 3329 ft 164 kts 270°
2026-05-04 02:30 33.43375 -112.07425 4029 ft 139 kts 225°
2026-05-04 02:30 33.42831 -112.08323 4619 ft 136 kts 235°
2026-05-04 02:30 33.42373 -112.09358 4984 ft 151 kts 239°
2026-05-04 02:31 33.41879 -112.10661 4915 ft 194 kts 242°
2026-05-04 02:31 33.41322 -112.12292 4985 ft 229 kts 245°
2026-05-04 02:31 33.40759 -112.14181 5420 ft 247 kts 247°
2026-05-04 02:31 33.40193 -112.16153 5991 ft 255 kts 242°
2026-05-04 02:32 33.39082 -112.17728 6636 ft 253 kts 211°
2026-05-04 02:32 33.37367 -112.18372 7095 ft 266 kts 181°
2026-05-04 02:32 33.35568 -112.17893 7825 ft 270 kts 162°
2026-05-04 02:32 33.33794 -112.17133 8558 ft 272 kts 163°
2026-05-04 02:33 33.31998 -112.16426 9227 ft 275 kts 165°
2026-05-04 02:33 33.30148 -112.15764 9927 ft 276 kts 166°
2026-05-04 02:33 33.28304 -112.15159 10613 ft 276 kts 175°
2026-05-04 02:33 33.26414 -112.15434 11184 ft 276 kts 202°
2026-05-04 02:34 33.24870 -112.16724 11878 ft 276 kts 225°
2026-05-04 02:34 33.23674 -112.18519 12471 ft 280 kts 234°
2026-05-04 02:34 33.22594 -112.20464 13151 ft 282 kts 235°
2026-05-04 02:34 33.21500 -112.22436 13719 ft 285 kts 234°
2026-05-04 02:35 33.20380 -112.24365 14344 ft 285 kts 234°
2026-05-04 02:35 33.19252 -112.26296 14980 ft 284 kts 235°
2026-05-04 02:35 33.18129 -112.28239 15589 ft 285 kts 235°
2026-05-04 02:35 33.16993 -112.30196 16099 ft 288 kts 236°
2026-05-04 02:36 33.15861 -112.32141 16675 ft 288 kts 236°
2026-05-04 02:36 33.14716 -112.34113 17165 ft 290 kts 236°
2026-05-04 02:36 33.13568 -112.36082 17744 ft 289 kts 237°
2026-05-04 02:36 33.12422 -112.38055 18186 ft 292 kts 237°
2026-05-04 02:37 33.11267 -112.40055 18712 ft 292 kts 237°
2026-05-04 02:37 33.10105 -112.42052 19162 ft 294 kts 238°
2026-05-04 02:37 33.08921 -112.44048 19540 ft 298 kts 237°
2026-05-04 02:37 33.07702 -112.46073 20085 ft 297 kts 238°
2026-05-04 02:38 33.06506 -112.48079 20518 ft 298 kts 238°
2026-05-04 02:38 33.05311 -112.50095 20985 ft 298 kts 238°
2026-05-04 02:38 33.04105 -112.52135 21368 ft 301 kts 239°
2026-05-04 02:38 33.02899 -112.54174 21745 ft 303 kts 239°
2026-05-04 02:39 33.01703 -112.56213 22217 ft 302 kts 240°
2026-05-04 02:39 33.00473 -112.58302 22503 ft 307 kts 239°
2026-05-04 02:39 32.99281 -112.60355 23007 ft 304 kts 240°
2026-05-04 02:39 32.98072 -112.62434 23373 ft 306 kts 240°
2026-05-04 02:40 32.96856 -112.64533 23723 ft 307 kts 240°
2026-05-04 02:40 32.95641 -112.66644 24102 ft 308 kts 242°
2026-05-04 02:40 32.94941 -112.68989 24395 ft 304 kts 262°
2026-05-04 02:40 32.94751 -112.71516 24864 ft 304 kts 265°
2026-05-04 02:41 32.94576 -112.74036 25320 ft 305 kts 264°
2026-05-04 02:41 32.94340 -112.76532 25753 ft 305 kts 262°
2026-05-04 02:41 32.94038 -112.79031 26172 ft 306 kts 261°
2026-05-04 02:41 32.93721 -112.81544 26584 ft 307 kts 262°
2026-05-04 02:42 32.93385 -112.84027 26965 ft 308 kts 261°
2026-05-04 02:42 32.93050 -112.86529 27420 ft 306 kts 261°
2026-05-04 02:42 32.92708 -112.89046 27831 ft 306 kts 260°
2026-05-04 02:42 32.92383 -112.91562 28151 ft 308 kts 262°
2026-05-04 02:43 32.92039 -112.94064 28472 ft 310 kts 260°
2026-05-04 02:43 32.91700 -112.96594 28895 ft 309 kts 261°
2026-05-04 02:43 32.91366 -112.99113 29281 ft 308 kts 261°
2026-05-04 02:43 32.91015 -113.01637 29535 ft 311 kts 260°
2026-05-04 02:44 32.90662 -113.04173 29893 ft 309 kts 261°
2026-05-04 02:44 32.90299 -113.06674 30169 ft 310 kts 261°
2026-05-04 02:44 32.89929 -113.09203 30410 ft 311 kts 261°
2026-05-04 02:44 32.89584 -113.11741 30659 ft 312 kts 262°
2026-05-04 02:45 32.89208 -113.14329 30892 ft 314 kts 262°
2026-05-04 02:45 32.88838 -113.16856 31196 ft 312 kts 262°
2026-05-04 02:45 32.88472 -113.19402 31509 ft 310 kts 263°
2026-05-04 02:45 32.88098 -113.21925 31839 ft 308 kts 262°
2026-05-04 02:46 32.87746 -113.24441 32002 ft 309 kts 263°
2026-05-04 02:46 32.87391 -113.26998 32003 ft 316 kts 262°
2026-05-04 02:46 32.86652 -113.32251 32047 ft 327 kts 263°
2026-05-04 02:47 32.85895 -113.37736 32024 ft 340 kts 262°
2026-05-04 02:47 32.85121 -113.43381 32027 ft 351 kts 261°
2026-05-04 02:48 32.84311 -113.49166 32029 ft 359 kts 263°
2026-05-04 02:48 32.83476 -113.55094 32046 ft 366 kts 262°
2026-05-04 02:49 32.82670 -113.61121 32035 ft 372 kts 262°
2026-05-04 02:49 32.81822 -113.67164 32044 ft 373 kts 261°
2026-05-04 02:50 32.80966 -113.73292 32047 ft 373 kts 261°
2026-05-04 02:50 32.80077 -113.79369 32033 ft 372 kts 260°
2026-05-04 02:51 32.79235 -113.85438 32039 ft 370 kts 261°
2026-05-04 02:51 32.78367 -113.91461 32034 ft 370 kts 259°
2026-05-04 02:52 32.77493 -113.97505 32023 ft 369 kts 263°
2026-05-04 02:52 32.77525 -114.03590 32028 ft 368 kts 270°
2026-05-04 02:53 32.77708 -114.09625 32034 ft 367 kts 271°
2026-05-04 02:53 32.78005 -114.15664 32032 ft 366 kts 270°
2026-05-04 02:54 32.78273 -114.21700 32033 ft 365 kts 271°
2026-05-04 02:54 32.78558 -114.27724 32039 ft 364 kts 269°
2026-05-04 02:55 32.78947 -114.36762 32019 ft 366 kts 269°
2026-05-04 02:56 32.80075 -114.42709 32035 ft 377 kts 285°
2026-05-04 02:56 32.81966 -114.48502 32006 ft 376 kts 283°
2026-05-04 02:57 32.83643 -114.54430 31647 ft 384 kts 282°
2026-05-04 02:57 32.85293 -114.60435 31993 ft 376 kts 282°
2026-05-04 02:57 32.86130 -114.63431 31685 ft 384 kts 283°
2026-05-04 02:58 32.86943 -114.66467 31428 ft 387 kts 281°
2026-05-04 02:58 32.88454 -114.72405 31294 ft 367 kts 273°
2026-05-04 02:58 32.88432 -114.75436 30929 ft 362 kts 264°
2026-05-04 02:59 32.88153 -114.78409 30505 ft 362 kts 263°
2026-05-04 02:59 32.87911 -114.81402 30057 ft 363 kts 265°
2026-05-04 02:59 32.87756 -114.84375 29526 ft 366 kts 268°
2026-05-04 02:59 32.87636 -114.87415 29035 ft 367 kts 268°
2026-05-04 03:00 32.87537 -114.90420 28793 ft 362 kts 267°
2026-05-04 03:00 32.87478 -114.93429 28320 ft 364 kts 267°
2026-05-04 03:00 32.87441 -114.96396 27997 ft 361 kts 269°
2026-05-04 03:00 32.87377 -114.99377 27614 ft 362 kts 268°
2026-05-04 03:01 32.87325 -115.02395 26935 ft 369 kts 268°
2026-05-04 03:01 32.87273 -115.05449 26409 ft 372 kts 268°
2026-05-04 03:01 32.87190 -115.08495 26170 ft 368 kts 267°
2026-05-04 03:01 32.87111 -115.11536 25835 ft 366 kts 267°
2026-05-04 03:02 32.87069 -115.14579 25572 ft 364 kts 268°
2026-05-04 03:02 32.87033 -115.17574 25297 ft 361 kts 268°
2026-05-04 03:02 32.86953 -115.20537 25042 ft 358 kts 267°
2026-05-04 03:02 32.86869 -115.23465 24840 ft 354 kts 266°
2026-05-04 03:03 32.86795 -115.26363 24837 ft 346 kts 266°
2026-05-04 03:03 32.86735 -115.29211 24794 ft 339 kts 267°
2026-05-04 03:03 32.86680 -115.31985 24793 ft 331 kts 266°
2026-05-04 03:03 32.86627 -115.34696 24791 ft 323 kts 263°
2026-05-04 03:04 32.86294 -115.37292 24807 ft 316 kts 259°
2026-05-04 03:04 32.85845 -115.39846 24806 ft 321 kts 259°
2026-05-04 03:04 32.85408 -115.42506 24817 ft 329 kts 259°
2026-05-04 03:04 32.84999 -115.45216 24800 ft 338 kts 259°
2026-05-04 03:05 32.84595 -115.48006 24735 ft 345 kts 260°
2026-05-04 03:05 32.84173 -115.50781 24365 ft 345 kts 258°
2026-05-04 03:05 32.83720 -115.53622 23607 ft 354 kts 257°
2026-05-04 03:05 32.83255 -115.56542 22833 ft 363 kts 258°
2026-05-04 03:06 32.82785 -115.59486 22491 ft 365 kts 258°
2026-05-04 03:06 32.82304 -115.62459 22442 ft 358 kts 257°
2026-05-04 03:06 32.81844 -115.65320 22206 ft 356 kts 258°
2026-05-04 03:06 32.81365 -115.68232 21998 ft 353 kts 257°
2026-05-04 03:07 32.80906 -115.71065 21827 ft 350 kts 257°
2026-05-04 03:07 32.80445 -115.73927 21575 ft 349 kts 257°
2026-05-04 03:07 32.79957 -115.76759 21412 ft 346 kts 257°
2026-05-04 03:07 32.79481 -115.79543 21221 ft 345 kts 257°
2026-05-04 03:08 32.79017 -115.82363 20878 ft 348 kts 257°
2026-05-04 03:08 32.78566 -115.85188 20560 ft 350 kts 258°
2026-05-04 03:08 32.78322 -115.88088 20204 ft 353 kts 263°
2026-05-04 03:08 32.78168 -115.90968 19896 ft 355 kts 264°
2026-05-04 03:09 32.77994 -115.93893 19687 ft 354 kts 263°
2026-05-04 03:09 32.77799 -115.96821 19461 ft 353 kts 263°
2026-05-04 03:09 32.77605 -115.99702 19299 ft 350 kts 262°
2026-05-04 03:09 32.77402 -116.02534 19309 ft 333 kts 263°
2026-05-04 03:10 32.77191 -116.05188 19134 ft 313 kts 262°
2026-05-04 03:10 32.77001 -116.07717 18418 ft 303 kts 262°
2026-05-04 03:10 32.76826 -116.10175 17393 ft 304 kts 263°
2026-05-04 03:10 32.76649 -116.12643 16468 ft 301 kts 262°
2026-05-04 03:11 32.76471 -116.15118 15404 ft 304 kts 262°
2026-05-04 03:11 32.76270 -116.17617 14816 ft 302 kts 262°
2026-05-04 03:11 32.76076 -116.20045 14608 ft 290 kts 262°
2026-05-04 03:11 32.75897 -116.22399 14199 ft 286 kts 262°
2026-05-04 03:12 32.75715 -116.24759 13712 ft 286 kts 262°
2026-05-04 03:12 32.75530 -116.27091 13288 ft 283 kts 262°
2026-05-04 03:12 32.75367 -116.29385 12953 ft 278 kts 262°
2026-05-04 03:12 32.75199 -116.31675 12446 ft 274 kts 262°
2026-05-04 03:13 32.75032 -116.33884 11668 ft 274 kts 262°
2026-05-04 03:13 32.74848 -116.36146 10950 ft 277 kts 262°
2026-05-04 03:13 32.74671 -116.38442 10445 ft 278 kts 262°
2026-05-04 03:13 32.74483 -116.40695 10060 ft 275 kts 262°
2026-05-04 03:14 32.74309 -116.42896 9956 ft 261 kts 262°
2026-05-04 03:14 32.74144 -116.45054 9939 ft 264 kts 262°
2026-05-04 03:14 32.73961 -116.47259 9932 ft 275 kts 262°
2026-05-04 03:14 32.73779 -116.49548 9910 ft 280 kts 262°
2026-05-04 03:15 32.73584 -116.51853 9897 ft 279 kts 261°
2026-05-04 03:15 32.73366 -116.54109 9767 ft 271 kts 261°
2026-05-04 03:15 32.73145 -116.56307 9437 ft 267 kts 261°
2026-05-04 03:15 32.72936 -116.58463 9132 ft 262 kts 261°
2026-05-04 03:16 32.72718 -116.60623 8661 ft 263 kts 261°
2026-05-04 03:16 32.72472 -116.62773 8217 ft 262 kts 260°
2026-05-04 03:16 32.72208 -116.64895 7976 ft 254 kts 260°
2026-05-04 03:16 32.71997 -116.66924 7944 ft 239 kts 262°
2026-05-04 03:17 32.71846 -116.68840 7768 ft 231 kts 263°
2026-05-04 03:17 32.71701 -116.70721 7506 ft 227 kts 263°
2026-05-04 03:17 32.71556 -116.72567 7209 ft 225 kts 262°
2026-05-04 03:17 32.71399 -116.74442 6814 ft 227 kts 262°
2026-05-04 03:18 32.71249 -116.76291 6461 ft 228 kts 263°
2026-05-04 03:18 32.71090 -116.78168 6166 ft 226 kts 262°
2026-05-04 03:18 32.70931 -116.80000 5984 ft 219 kts 263°
2026-05-04 03:18 32.70781 -116.81795 5961 ft 223 kts 262°
2026-05-04 03:19 32.70305 -116.83533 5921 ft 222 kts 247°
2026-05-04 03:19 32.69714 -116.85233 5585 ft 223 kts 249°
2026-05-04 03:19 32.69137 -116.86959 5206 ft 225 kts 249°
2026-05-04 03:19 32.68593 -116.88681 5009 ft 225 kts 251°
2026-05-04 03:20 32.68051 -116.90493 4993 ft 234 kts 251°
2026-05-04 03:20 32.67527 -116.92271 4888 ft 228 kts 251°
2026-05-04 03:20 32.67043 -116.94070 4798 ft 224 kts 262°
2026-05-04 03:20 32.67296 -116.95862 4501 ft 224 kts 294°
2026-05-04 03:21 32.67954 -116.97540 4125 ft 226 kts 291°
2026-05-04 03:21 32.68490 -116.99263 3989 ft 216 kts 288°
2026-05-04 03:21 32.68951 -117.00887 3962 ft 203 kts 287°
2026-05-04 03:21 32.69357 -117.02452 3940 ft 191 kts 287°
2026-05-04 03:22 32.69714 -117.03896 3960 ft 173 kts 285°
2026-05-04 03:22 32.70027 -117.05182 3922 ft 150 kts 285°
2026-05-04 03:22 32.70281 -117.06388 3432 ft 154 kts 281°
2026-05-04 03:22 32.70526 -117.07622 2982 ft 151 kts 285°
2026-05-04 03:23 32.70819 -117.08767 2638 ft 138 kts 286°
2026-05-04 03:23 32.71071 -117.09786 2331 ft 126 kts 286°
2026-05-04 03:23 32.71349 -117.10777 2008 ft 129 kts 288°
2026-05-04 03:23 32.71627 -117.11787 1692 ft 128 kts 283°
2026-05-04 03:24 32.71845 -117.12798 1386 ft 125 kts 285°
2026-05-04 03:24 32.72090 -117.13774 1075 ft 123 kts 285°
2026-05-04 03:24 32.72333 -117.14742 797 ft 121 kts 283°
2026-05-04 03:24 32.72565 -117.15684 568 ft 119 kts 285°
2026-05-04 03:25 32.72790 -117.16635 355 ft 119 kts 285°
2026-05-04 03:25 32.73022 -117.17592 146 ft 122 kts 284°
2026-05-04 03:25 32.73258 -117.18562 24 ft 112 kts 285°
2026-05-04 03:25 32.73426 -117.19252 24 ft 59 kts 284°
2026-05-04 03:26 32.73435 -117.19465 23 ft 11 kts 250°
2026-05-04 03:26 32.73423 -117.19490 23 ft 0 kts 231°
2026-05-04 03:28 32.73402 -117.19496 23 ft 6 kts 172°
2026-05-04 03:28 32.73369 -117.19461 23 ft 7 kts 130°
2026-05-04 03:28 32.73321 -117.19433 23 ft 8 kts 174°
2026-05-04 03:28 32.73274 -117.19400 23 ft 7 kts 115°
2026-05-04 03:29 32.73258 -117.19334 23 ft 10 kts 107°
2026-05-04 03:29 32.73240 -117.19265 24 ft 2 kts 115°
2026-05-04 03:29 32.73232 -117.19259 24 ft 0 kts 167°
2026-05-04 03:29 32.73216 -117.19266 23 ft 5 kts 206°
2026-05-04 03:30 32.73185 -117.19285 23 ft 0 kts 207°
2026-05-04 04:16 32.71710 -117.12179 794 ft 222 kts 285°